www.pogodaiklimat.ru

Погода и климат >> Архив погоды >> Австралия >> Северная территория >> Уорруви


ПОГОДА в Уорруви

  • Прогноз погоды в Уорруви
  • Монитор погоды в Уорруви

АРХИВ ПОГОДЫ в Уорруви

Время (UTC), дата Ветер
(напр.,м/с)
 
Видим.   Явления Облачность Т
(С)
Тd
(С)
f
(%)
Тe
(С)
Тes
(С)
Комфортность P
(гПа)
Po
(гПа)
Тmin
(С)
Tmax
(С)
R
(мм)
R24
(мм)
S
(см)
08 11.02 З 5 н/о н/о +33.2 +21.7 51 +41 +41 опасность
перегрева
1008.0 1005.8
11 11.02 СЗ 3 н/о н/о +28.9 +25.9 84 +43 +43 опасность
перегрева
1009.9 1007.7
14 11.02 З 3 н/о н/о +28.5 +25.7 85 +42 +42 опасность
перегрева
1011.8 1009.6 +34.1
17 11.02 СЗ 4 н/о н/о +28.2 +25.6 86 +42 +42 опасность
перегрева
1010.2 1008.0
20 11.02 З 5 н/о н/о +28.1 +25.1 84 +41 +41 опасность
перегрева
1010.5 1008.3
23 11.02 З 4 н/о н/о +28.9 +25.5 82 +43 +43 опасность
перегрева
1012.5 1010.3
02 12.02 З 3 н/о н/о +31.4 +26.0 73 +47 +47 опасность
перегрева
1012.1 1009.9 +27.8
05 12.02 СЗ 4 н/о н/о +32.1 +26.2 71 +48 +48 опасность
перегрева
1009.9 1007.7
08 12.02 СЗ 4 н/о н/о +30.8 +25.8 75 +46 +46 опасность
перегрева
1008.5 1006.3
11 12.02 СЗ 4 н/о н/о +28.9 +25.9 84 +43 +43 опасность
перегрева
1010.2 1008.0
14 12.02 СЗ 3 н/о н/о +28.4 +25.2 83 +41 +41 опасность
перегрева
1011.2 1009.0 +34.1
17 12.02 З 4 н/о н/о +28.0 +25.4 86 +41 +41 опасность
перегрева
1010.5 1008.3
20 12.02 З 3 н/о н/о +27.9 +25.5 87 +41 +41 опасность
перегрева
1011.6 1009.4
23 12.02 З 4 н/о н/о +28.3 +25.3 84 +41 +41 опасность
перегрева
1012.4 1010.2
02 13.02 З 4 н/о н/о +32.0 +25.8 70 +47 +47 опасность
перегрева
1011.6 1009.4 +27.7
05 13.02 З 5 н/о н/о +33.6 +25.0 61 +47 +47 опасность
перегрева
1009.5 1007.3
08 13.02 З 4 н/о в посл. час дождь {туман} н/о +30.6 +26.3 78 +47 +47 опасность
перегрева
1008.2 1006.0
11 13.02 З 4 н/о {туман} н/о +30.0 +26.0 79 +45 +45 опасность
перегрева
1010.2 1008.0 1
14 13.02 З 5 н/о н/о +28.2 +25.0 83 +41 +41 опасность
перегрева
1011.3 1009.1 +34.4
17 13.02 З 4 н/о н/о +27.7 +24.7 84 +39 +39 очень
душно
1009.5 1007.3
20 13.02 З 3 н/о н/о +27.9 +25.7 88 +41 +41 опасность
перегрева
1009.9 1007.7
23 13.02 З 3 н/о н/о +29.1 +25.3 80 +42 +42 опасность
перегрева
1011.6 1009.4 1
02 14.02 СЗ 3 н/о н/о +31.3 +25.4 71 +46 +46 опасность
перегрева
1011.5 1009.3 +27.6
05 14.02 СЗ 3 н/о н/о +32.2 +26.3 71 +48 +48 опасность
перегрева
1008.8 1006.6
08 14.02 СЗ 3 н/о н/о +30.2 +26.4 80 +46 +46 опасность
перегрева
1007.8 1005.6
11 14.02 З 3 н/о н/о +29.2 +25.8 82 +44 +44 опасность
перегрева
1010.3 1008.1
14 14.02 Ю 2 н/о н/о +26.1 +21.7 77 +34 +34 очень
душно
1012.1 1009.9 +33.2
17 14.02 штиль 0 н/о н/о +25.9 +22.4 81 +34 +34 очень
душно
1010.4 1008.2
20 14.02 штиль 0 н/о н/о +25.3 +22.8 86 +33 +33 очень
душно
1010.2 1008.0
23 14.02 штиль 0 н/о н/о +29.7 +24.8 75 +42 +42 опасность
перегрева
1012.2 1010.0
02 15.02 З 3 н/о н/о +30.5 +25.8 76 +45 +45 опасность
перегрева
1012.7 1010.5 +25.1
05 15.02 СЗ 3 н/о н/о +31.0 +25.1 71 +45 +45 опасность
перегрева
1010.5 1008.3
08 15.02 СЗ 3 н/о н/о +31.1 +26.8 78 +48 +48 опасность
перегрева
1009.1 1006.9
11 15.02 СЗ 2 н/о н/о +29.0 +26.4 86 +44 +44 опасность
перегрева
1011.3 1009.1
14 15.02 СЗ 2 н/о н/о +28.7 +26.1 86 +43 +43 опасность
перегрева
1013.0 1010.8 +32.4
17 15.02 З 2 н/о н/о +28.5 +26.1 87 +43 +43 опасность
перегрева
1011.5 1009.3
20 15.02 СЗ 1 н/о н/о +27.2 +24.7 86 +39 +39 очень
душно
1011.3 1009.1
23 15.02 З 3 н/о н/о +29.7 +25.4 78 +44 +44 опасность
перегрева
1012.5 1010.3
02 16.02 Ю 1 н/о н/о +32.1 +24.9 66 +46 +46 опасность
перегрева
1012.4 1010.2 +27.1
05 16.02 С 3 н/о н/о +32.4 +24.4 63 +45 +45 опасность
перегрева
1009.6 1007.4
08 16.02 С 3 н/о н/о +31.0 +23.9 66 +43 +43 опасность
перегрева
1007.8 1005.6
11 16.02 СЗ 2 н/о н/о +28.8 +24.1 76 +40 +40 очень
душно
1011.1 1008.9
14 16.02 СЗ 2 н/о н/о +28.0 +24.6 82 +40 +40 очень
душно
1012.1 1009.9 +34.2
17 16.02 СЗ 1 н/о н/о +27.5 +24.9 86 +39 +39 очень
душно
1010.1 1007.9
20 16.02 СЗ 1 н/о н/о +27.6 +25.4 88 +40 +40 очень
душно
1009.8 1007.6
23 16.02 З 3 н/о н/о +29.5 +25.5 79 +43 +43 опасность
перегрева
1012.3 1010.1
02 17.02 СЗ 2 н/о н/о +31.8 +24.9 67 +45 +45 опасность
перегрева
1012.0 1009.8 +27.2
05 17.02 С 3 н/о н/о +32.6 +23.5 59 +44 +44 опасность
перегрева
1009.4 1007.2
08 17.02 С 3 н/о н/о +30.5 +24.2 69 +42 +42 опасность
перегрева
1007.9 1005.7
11 17.02 СЗ 2 н/о н/о +28.8 +25.0 80 +42 +42 опасность
перегрева
1009.7 1007.5
14 17.02 З 2 н/о н/о +28.8 +25.2 81 +42 +42 опасность
перегрева
1011.5 1009.3 +33.5
17 17.02 З 2 н/о н/о +28.3 +24.9 82 +41 +41 опасность
перегрева
1009.4 1007.2
20 17.02 З 2 н/о н/о +28.2 +25.4 85 +41 +41 опасность
перегрева
1009.3 1007.1
23 17.02 З 3 н/о н/о +29.6 +24.7 75 +42 +42 опасность
перегрева
1011.3 1009.1
02 18.02 З 3 н/о н/о +32.0 +24.1 63 +44 +44 опасность
перегрева
1011.5 1009.3 +28.1
05 18.02 С 3 н/о н/о +31.9 +25.5 69 +46 +46 опасность
перегрева
1009.0 1006.8

 

Местоположение метеостанции Уорруви (Северная территория, Австралия): широта -11.65 долгота 133.38 высота над уровнем моря 20 м.

В архиве по умолчанию представлена погода в Уорруви за последнюю неделю. Архивные данные за месяц целиком и за предыдущие месяцы, начиная с января 2011 года, Вы можете получить, выбрав интересующий диапазон дат из раскрывающегося списка и нажав кнопку "Ввод!".


*Определитесь, кто Вы:
робот инопланетянин человек

Внимание! Время в таблицах - всемирное. Для получения местного времени необходимо прибавить поправку, которая равна 9.5 ч.

Смотрите также архив погоды в соседних городах и на ближайших метеорологических станциях:

Погода на Острове Маклер (Северная территория, Австралия) (80 км)
Погода в Манингриде (Северная территория, Австралия) (103 км)
Погода в Джаберу (Северная территория, Австралия) (125 км)
Погода в Милинджимби (Северная территория, Австралия) (174 км)
Погода в Пойнт Стьюарт (Северная территория, Австралия) (176 км)
Погода в Кейп-Доне (Северная территория, Австралия) (179 км)
Погода на Центральном плато Арнем (Северная территория, Австралия) (190 км)
Погода в Галивинку (Северная территория, Австралия) (242 км)
Погода в Булман Уимол (Северная территория, Австралия) (247 км)
Погода в Милд Пойнт (Северная территория, Австралия) (250 км)

Пояснения к столбцам:

Ветер - указаны скорость ветра в м/с - средняя за 10 мин, порывы в срок и между сроками (в фигурных скобках) и направление, откуда дует ветер: С - северный, СВ - северо-восточный, В - восточный, ЮВ - юго-восточный, Ю - южный, ЮЗ - юго-западный, З - западный, СЗ - северо-западный.
Видимость - горизонтальная дальность видимости в метрах или километрах. При видимости от 1 до 10 км при отсутствии осадков обычно наблюдается дымка, при ухудшении видимости до 1 км и менее - туман. В сухую погоду видимость может ухудшаться дымом, пылью или мглою.
Явления - указаны атмосферные явления, наблюдавшиеся в срок или в последний час перед сроком; фигурными скобками обозначены явления, наблюдавшиеся между сроками (за 1-3 часа до срока); квадратными скобками обозначены град или гололедные отложения с указанием их диаметра в мм.
Облачность - указаны через наклонную черту общая и нижняя облачность в баллах и высота нижней границы облаков в метрах; квадратными скобками обозначены формы облаков: Ci - перистые, Cs - перисто-слоистые, Cc - перисто-кучевые, Ac - высококучевые, As - высокослоистые, Sc - слоисто-кучевые, Ns - слоисто-дождевые, Cu - кучевые, Cb - кучево-дождевые. Подробнее классификацию облаков см. в Атласе облаков (PDF).
T - Температура воздуха - температура, измеренная на высоте 2 м над землей.
Td - Температура точки росы - температура, при понижении до которой содержащийся в воздухе водяной пар достигнет насыщения.
f - Относительная влажность воздуха - влажноcть воздуха, измеренная на высоте 2 м над землей.
Te - Эффективная температура - температура, которую ощущает одетый по сезону человек в тени. Характеристика душности погоды. При расчете учитывается влияние влажности воздуха и скорости ветра на теплоощущения человека.
Tes - Эффективная температура на солнце - температура, которую ощущает человек, с поправкой на солнечный нагрев. Характеристика знойности погоды. Зависит от высоты солнца над горизонтом, облачности и скорости ветра. Ночью, в пасмурную погоду, а также при ветре 12 м/с и более поправка равна нулю.
P - Атмосферное давление - приведенное к уровню моря атмосферное давление.
Po - Атмосферное давление - измеренное на уровне метеостанции атмосферное давление.
Tmin - Минимальная температура - минимум температуры воздуха на высоте 2 м над землей.
Tmax - Максимальная температура - максимум температуры воздуха на высоте 2 м над землей.
R - Количество осадков - Количество выпавших осадков за период времени, мм. При наведении курсора мыши на число - период времени, за который выпало указанное количество осадков.
R24 - Количество осадков - Количество выпавших осадков за 24 часа, мм.
S - Снежный покров - Высота снежного покрова, см. При наведении курсора мыши на число - состояние снежного покрова и степень покрытия местности в баллах.